Location: A�t Lahcen
(32.8243°N, 5.4246°W)
Time: 01:57:00
(UTC+00:00)

Cosmos 1825 Rocket - Pass Details

Date: 27 January 2021
Orbit: 604 x 630 km, 82.5° (Epoch: 26 February)

Event Time Altitude Azimuth Distance (km) Brightness Sun altitude
Rises 06:32:38 0° 350° (N) 2,924 6.8 -10.2°
Reaches altitude 10° 06:34:53 10° 348° (NNW) 2,013 5.9 -9.8°
Maximum altitude 06:39:19 67° 266° (W) 684 3.6 -8.9°
Drops below altitude 10° 06:43:42 10° 184° (S) 1,994 6.3 -8.0°
Sets 06:45:55 0° 181° (S) 2,894 7.2 -7.5°
